Time,TemperatureF,DewpointF,PressureIn,WindDirection,WindDirectionDegrees,WindSpeedMPH,WindSpeedGustMPH,Humidity,HourlyPrecipIn,Conditions,Clouds,dailyrainin,SoftwareType,DateUTC
2013-02-11 00:00:00,35.8,19.4,29.89,South,186,8.7,8.7,51,0.00,,OVC100,0.00,VWS V14.01,2013-02-11 05:00:00,
2013-02-11 00:04:00,35.8,19.4,29.89,South,183,6.3,11.0,51,0.00,,OVC140,0.00,VWS V14.01,2013-02-11 05:04:00,
2013-02-11 00:05:00,35.8,19.4,29.89,South,181,10.1,11.0,51,0.00,,OVC140,0.00,VWS V14.01,2013-02-11 05:05:00,
2013-02-11 00:10:00,35.8,19.4,29.89,South,171,5.8,11.4,51,0.00,,OVC140,0.00,VWS V14.01,2013-02-11 05:10:00,
2013-02-11 00:15:00,35.8,19.9,29.89,SSE,163,5.4,8.7,52,0.00,,OVC140,0.00,VWS V14.01,2013-02-11 05:15:00,
2013-02-11 00:20:00,35.6,19.7,29.86,South,178,3.6,4.0,52,0.00,,OVC140,0.00,VWS V14.01,2013-02-11 05:20:00,
2013-02-11 00:25:00,35.6,20.2,29.86,WSW,245,4.0,4.0,53,0.00,,OVC140,0.00,VWS V14.01,2013-02-11 05:25:00,
2013-02-11 00:30:00,35.6,20.2,29.86,SSW,192,5.4,6.3,53,0.00,,OVC140,0.00,VWS V14.01,2013-02-11 05:30:00,
2013-02-11 00:35:00,35.6,20.2,29.86,SSE,164,8.1,8.1,53,0.00,,OVC100,0.00,VWS V14.01,2013-02-11 05:35:00,
2013-02-11 00:40:00,35.8,20.8,29.86,SSE,157,4.0,10.5,54,0.00,,OVC100,0.00,VWS V14.01,2013-02-11 05:40:00,
2013-02-11 00:45:00,36.0,21.4,29.86,SSE,164,6.3,8.1,55,0.00,,OVC100,0.00,VWS V14.01,2013-02-11 05:45:00,
2013-02-11 00:50:00,36.1,21.5,29.86,South,175,10.1,10.1,55,0.00,,OVC100,0.00,VWS V14.01,2013-02-11 05:50:00,
2013-02-11 00:55:00,36.3,21.7,29.86,SSE,163,13.2,13.2,55,0.00,,OVC100,0.00,VWS V14.01,2013-02-11 05:55:00,
2013-02-11 01:00:00,36.9,20.9,29.86,SSW,198,11.0,13.6,52,0.00,,OVC100,0.00,VWS V14.01,2013-02-11 06:00:00,
2013-02-11 01:06:00,36.7,20.3,29.86,SSE,166,6.7,12.8,51,0.00,,OVC100,0.00,VWS V14.01,2013-02-11 06:06:00,
2013-02-11 01:11:00,36.5,20.1,29.86,SSE,166,8.3,12.8,51,0.00,,OVC100,0.00,VWS V14.01,2013-02-11 06:11:00,
2013-02-11 01:16:00,36.5,20.1,29.86,South,172,10.5,12.8,51,0.00,,OVC100,0.00,VWS V14.01,2013-02-11 06:16:00,
2013-02-11 01:21:00,36.3,19.9,29.83,SSE,147,8.1,12.3,51,0.00,,OVC100,0.00,VWS V14.01,2013-02-11 06:21:00,
2013-02-11 01:26:00,36.3,19.9,29.83,SSW,198,10.5,18.3,51,0.00,,OVC100,0.00,VWS V14.01,2013-02-11 06:26:00,
2013-02-11 01:31:00,36.3,19.5,29.83,SSE,147,8.1,8.1,50,0.00,,OVC100,0.00,VWS V14.01,2013-02-11 06:31:00,
2013-02-11 01:36:00,36.3,19.5,29.83,South,174,12.3,15.4,50,0.00,,OVC090,0.00,VWS V14.01,2013-02-11 06:36:00,
2013-02-11 01:41:00,36.3,19.5,29.83,SSE,162,9.2,16.8,50,0.00,,OVC090,0.00,VWS V14.01,2013-02-11 06:41:00,
2013-02-11 01:46:00,36.1,19.3,29.83,South,184,8.1,11.9,50,0.00,,OVC090,0.00,VWS V14.01,2013-02-11 06:46:00,
2013-02-11 01:51:00,36.1,19.3,29.83,South,191,8.7,11.0,50,0.00,,OVC090,0.00,VWS V14.01,2013-02-11 06:51:00,
2013-02-11 01:56:00,36.3,19.5,29.83,South,178,11.0,11.4,50,0.00,,OVC090,0.00,VWS V14.01,2013-02-11 06:56:00,
2013-02-11 02:01:00,36.3,19.5,29.83,SSW,197,9.6,12.3,50,0.00,,OVC090,0.00,VWS V14.01,2013-02-11 07:01:00,
2013-02-11 02:06:00,36.1,19.3,29.80,SSE,167,10.1,12.8,50,0.00,,OVC090,0.00,VWS V14.01,2013-02-11 07:06:00,
2013-02-11 02:11:00,36.1,19.3,29.80,SSE,163,12.8,15.0,50,0.00,,OVC090,0.00,VWS V14.01,2013-02-11 07:11:00,
2013-02-11 02:16:00,36.1,19.3,29.80,SSE,159,10.5,12.8,50,0.00,,OVC090,0.00,VWS V14.01,2013-02-11 07:16:00,
2013-02-11 02:21:00,36.1,19.3,29.80,SSE,162,6.7,11.0,50,0.00,,OVC090,0.00,VWS V14.01,2013-02-11 07:21:00,
2013-02-11 02:26:00,36.1,19.8,29.80,South,170,8.7,11.0,51,0.00,,OVC090,0.00,VWS V14.01,2013-02-11 07:26:00,
2013-02-11 02:31:00,35.8,19.4,29.80,South,169,5.4,5.4,51,0.00,,OVC090,0.00,VWS V14.01,2013-02-11 07:31:00,
2013-02-11 02:36:00,35.8,19.4,29.80,South,178,5.8,7.6,51,0.00,,OVC090,0.00,VWS V14.01,2013-02-11 07:36:00,
2013-02-11 02:41:00,35.8,19.9,29.80,SSE,149,8.7,8.7,52,0.00,,OVC090,0.00,VWS V14.01,2013-02-11 07:41:00,
2013-02-11 02:46:00,35.8,19.9,29.80,SSE,167,5.8,5.8,52,0.00,,OVC090,0.00,VWS V14.01,2013-02-11 07:46:00,
2013-02-11 02:51:00,35.8,19.9,29.80,SSE,163,6.3,7.6,52,0.00,,OVC090,0.00,VWS V14.01,2013-02-11 07:51:00,
2013-02-11 02:56:00,35.8,20.3,29.80,SSE,163,5.4,7.2,53,0.00,,OVC090,0.00,VWS V14.01,2013-02-11 07:56:00,
2013-02-11 03:01:00,35.8,20.3,29.80,SSE,154,3.1,8.3,53,0.00,,OVC090,0.00,VWS V14.01,2013-02-11 08:01:00,
2013-02-11 03:06:00,35.8,20.8,29.80,SSE,160,6.3,10.1,54,0.00,,OVC090,0.00,VWS V14.01,2013-02-11 08:06:00,
2013-02-11 03:11:00,35.6,20.6,29.80,SE,141,7.6,7.6,54,0.00,,OVC090,0.00,VWS V14.01,2013-02-11 08:11:00,
2013-02-11 03:16:00,35.6,21.0,29.80,SE,144,6.3,6.3,55,0.00,,OVC090,0.00,VWS V14.01,2013-02-11 08:16:00,
2013-02-11 03:21:00,35.6,21.5,29.80,SSE,158,8.1,8.7,56,0.00,,OVC090,0.00,VWS V14.01,2013-02-11 08:21:00,
2013-02-11 03:27:00,35.6,21.9,29.80,SSW,205,5.4,7.6,57,0.00,,OVC090,0.00,VWS V14.01,2013-02-11 08:27:00,
2013-02-11 03:32:00,35.6,21.9,29.80,South,179,5.8,8.7,57,0.00,,-RA,0.00,VWS V14.01,2013-02-11 08:32:00,
2013-02-11 03:37:00,35.4,22.1,29.78,SSE,165,8.7,10.1,58,0.00,,-RA,0.00,VWS V14.01,2013-02-11 08:37:00,
2013-02-11 03:42:00,35.4,22.1,29.78,South,177,7.6,8.1,58,0.00,,-RA,0.00,VWS V14.01,2013-02-11 08:42:00,
2013-02-11 03:47:00,35.4,22.5,29.78,SSE,163,5.8,8.1,59,0.00,,-RA,0.00,VWS V14.01,2013-02-11 08:47:00,
2013-02-11 03:52:00,35.2,22.4,29.78,SSE,155,5.8,8.7,59,0.00,,-RA,0.00,VWS V14.01,2013-02-11 08:52:00,
2013-02-11 03:57:00,35.2,22.4,29.78,SSW,211,10.1,10.1,59,0.00,,-RA,0.00,VWS V14.01,2013-02-11 08:57:00,
2013-02-11 04:02:00,35.4,22.1,29.78,SSE,156,3.1,8.1,58,0.00,,-RA,0.00,VWS V14.01,2013-02-11 09:02:00,
2013-02-11 04:07:00,35.4,21.7,29.78,SSE,157,8.7,10.5,57,0.00,,-RA,0.00,VWS V14.01,2013-02-11 09:07:00,
2013-02-11 04:12:00,35.6,21.0,29.78,SSE,162,10.5,11.0,55,0.00,,-RA,0.00,VWS V14.01,2013-02-11 09:12:00,
2013-02-11 04:17:00,35.6,21.0,29.78,SSE,165,6.3,11.0,55,0.00,,-RA,0.00,VWS V14.01,2013-02-11 09:17:00,
2013-02-11 04:22:00,35.6,21.0,29.75,South,169,7.6,12.3,55,0.00,,-RA,0.00,VWS V14.01,2013-02-11 09:22:00,
2013-02-11 04:27:00,35.6,21.0,29.75,South,169,6.3,8.3,55,0.00,,-RA,0.00,VWS V14.01,2013-02-11 09:27:00,
2013-02-11 04:32:00,35.4,21.3,29.75,SSE,155,5.8,8.1,56,0.00,,-RA,0.00,VWS V14.01,2013-02-11 09:32:00,
2013-02-11 04:37:00,35.4,21.3,29.75,South,181,7.6,11.0,56,0.00,,-RA,0.00,VWS V14.01,2013-02-11 09:37:00,
2013-02-11 04:42:00,35.6,21.0,29.75,SSE,154,8.3,8.7,55,0.00,,-RA,0.00,VWS V14.01,2013-02-11 09:42:00,
2013-02-11 04:47:00,35.6,21.5,29.75,South,186,8.7,8.7,56,0.00,,-RA,0.00,VWS V14.01,2013-02-11 09:47:00,
2013-02-11 04:52:00,36.0,21.8,29.75,SSE,153,8.1,14.5,56,0.00,,-RA,0.00,VWS V14.01,2013-02-11 09:52:00,
2013-02-11 04:57:00,36.0,22.2,29.75,SSE,166,11.0,11.0,57,0.00,,-RA,0.00,VWS V14.01,2013-02-11 09:57:00,
2013-02-11 05:02:00,36.0,22.2,29.75,South,178,6.3,13.2,57,0.00,,-RA,0.00,VWS V14.01,2013-02-11 10:02:00,
2013-02-11 05:07:00,36.0,22.2,29.72,South,176,8.1,10.1,57,0.00,,-RA,0.00,VWS V14.01,2013-02-11 10:07:00,
2013-02-11 05:12:00,36.1,22.8,29.72,South,173,8.3,11.0,58,0.00,,-RA,0.00,VWS V14.01,2013-02-11 10:12:00,
2013-02-11 05:18:00,36.1,22.8,29.72,SSW,198,5.8,8.7,58,0.00,,-RA,0.00,VWS V14.01,2013-02-11 10:18:00,
2013-02-11 05:23:00,36.1,23.2,29.72,SSE,168,6.3,9.2,59,0.00,,-RA,0.00,VWS V14.01,2013-02-11 10:23:00,
2013-02-11 05:28:00,36.1,23.6,29.72,South,172,7.6,12.3,60,0.00,,-RA,0.00,VWS V14.01,2013-02-11 10:28:00,
2013-02-11 05:33:00,36.1,24.0,29.72,South,188,5.4,10.1,61,0.00,,-RA,0.00,VWS V14.01,2013-02-11 10:33:00,
2013-02-11 05:38:00,36.1,24.8,29.72,SSW,199,8.1,8.3,63,0.00,,-RA,0.00,VWS V14.01,2013-02-11 10:38:00,
2013-02-11 05:43:00,36.1,25.5,29.72,South,170,6.3,8.1,65,0.00,,-RA,0.00,VWS V14.01,2013-02-11 10:43:00,
2013-02-11 05:48:00,36.1,26.3,29.72,South,182,6.3,8.3,67,0.04,,-RA,0.04,VWS V14.01,2013-02-11 10:48:00,
2013-02-11 05:53:00,36.1,26.6,29.72,SSW,197,8.1,8.7,68,0.04,,-RA,0.04,VWS V14.01,2013-02-11 10:53:00,
2013-02-11 05:58:00,36.1,27.3,29.72,SSW,199,6.3,8.7,70,0.04,,-RA,0.04,VWS V14.01,2013-02-11 10:58:00,
2013-02-11 06:03:00,36.0,27.5,29.72,SSW,194,5.4,8.7,71,0.04,,RA,0.04,VWS V14.01,2013-02-11 11:03:00,
2013-02-11 06:08:00,36.0,27.8,29.72,South,189,5.8,7.6,72,0.04,,RA,0.04,VWS V14.01,2013-02-11 11:08:00,
2013-02-11 06:13:00,35.8,28.0,29.72,SSW,193,4.0,8.1,73,0.04,,RA,0.04,VWS V14.01,2013-02-11 11:13:00,
2013-02-11 06:18:00,35.8,28.3,29.72,South,169,7.6,7.6,74,0.04,,RA,0.04,VWS V14.01,2013-02-11 11:18:00,
2013-02-11 06:23:00,36.0,29.1,29.72,South,169,5.8,8.7,76,0.04,,RA,0.04,VWS V14.01,2013-02-11 11:23:00,
2013-02-11 06:28:00,36.0,29.5,29.72,SSE,166,8.3,8.7,77,0.04,,RA,0.04,VWS V14.01,2013-02-11 11:28:00,
2013-02-11 06:33:00,36.0,29.8,29.72,SSW,208,8.3,8.3,78,0.04,,-RA,0.04,VWS V14.01,2013-02-11 11:33:00,
2013-02-11 06:38:00,36.1,30.0,29.69,South,180,5.8,8.1,78,0.04,,-RA,0.04,VWS V14.01,2013-02-11 11:38:00,
2013-02-11 06:43:00,36.3,30.4,29.69,South,190,8.1,12.3,79,0.04,,-RA,0.04,VWS V14.01,2013-02-11 11:43:00,
2013-02-11 06:48:00,36.5,30.9,29.69,SSW,192,6.7,9.6,80,0.00,,-RA,0.04,VWS V14.01,2013-02-11 11:48:00,
2013-02-11 06:53:00,36.5,30.9,29.69,SSW,192,5.8,10.5,80,0.00,,-RA,0.04,VWS V14.01,2013-02-11 11:53:00,
2013-02-11 06:58:00,36.5,30.9,29.69,SSE,167,5.8,8.3,80,0.00,,-RA,0.04,VWS V14.01,2013-02-11 11:58:00,
2013-02-11 07:03:00,36.5,31.2,29.69,SSW,203,4.9,6.3,81,0.00,,-RA,0.04,VWS V14.01,2013-02-11 12:03:00,
2013-02-11 07:08:00,36.7,31.4,29.69,South,187,5.4,10.1,81,0.00,,-RA,0.04,VWS V14.01,2013-02-11 12:08:00,
2013-02-11 07:13:00,36.7,31.7,29.69,SSW,208,5.8,8.7,82,0.00,,-RA,0.04,VWS V14.01,2013-02-11 12:13:00,
2013-02-11 07:18:00,36.9,31.9,29.69,SSW,202,8.1,8.7,82,0.00,,-RA,0.04,VWS V14.01,2013-02-11 12:18:00,
2013-02-11 07:23:00,37.0,32.1,29.69,SSW,211,10.5,13.2,82,0.00,,-RA,0.04,VWS V14.01,2013-02-11 12:23:00,
2013-02-11 07:29:00,37.4,32.4,29.69,SW,231,15.9,15.9,82,0.00,,-RA,0.04,VWS V14.01,2013-02-11 12:29:00,
2013-02-11 07:34:00,37.6,32.6,29.69,SW,217,13.2,15.9,82,0.04,,OVC037,0.08,VWS V14.01,2013-02-11 12:34:00,
2013-02-11 07:39:00,37.9,33.0,29.69,SSW,204,6.3,11.0,82,0.04,,OVC037,0.08,VWS V14.01,2013-02-11 12:39:00,
2013-02-11 07:44:00,37.9,32.6,29.69,SSW,209,12.8,12.8,81,0.04,,OVC037,0.08,VWS V14.01,2013-02-11 12:44:00,
2013-02-11 07:49:00,38.1,32.8,29.69,South,191,10.5,17.4,81,0.04,,OVC037,0.08,VWS V14.01,2013-02-11 12:49:00,
2013-02-11 07:54:00,38.1,32.8,29.69,SW,224,10.5,17.4,81,0.04,,OVC037,0.08,VWS V14.01,2013-02-11 12:54:00,
2013-02-11 07:59:00,38.3,32.7,29.69,SW,234,8.7,15.9,80,0.04,,OVC037,0.08,VWS V14.01,2013-02-11 12:59:00,
2013-02-11 08:04:00,38.1,32.5,29.69,SW,216,5.8,15.0,80,0.04,,OVC037,0.08,VWS V14.01,2013-02-11 13:04:00,
2013-02-11 08:09:00,38.5,32.9,29.69,SW,230,6.3,15.0,80,0.04,,OVC037,0.08,VWS V14.01,2013-02-11 13:09:00,
2013-02-11 08:14:00,38.7,33.3,29.69,SW,214,5.8,15.4,81,0.04,,OVC037,0.08,VWS V14.01,2013-02-11 13:14:00,
2013-02-11 08:19:00,38.5,33.2,29.69,South,185,8.3,15.4,81,0.04,,OVC037,0.08,VWS V14.01,2013-02-11 13:19:00,
2013-02-11 08:24:00,38.5,33.2,29.69,South,186,10.5,12.8,81,0.04,,OVC037,0.08,VWS V14.01,2013-02-11 13:24:00,
2013-02-11 08:29:00,38.7,33.3,29.69,SSW,210,5.8,12.8,81,0.04,,OVC037,0.08,VWS V14.01,2013-02-11 13:29:00,
2013-02-11 08:34:00,38.7,33.7,29.69,SW,219,13.2,13.2,82,0.04,,OVC032,0.08,VWS V14.01,2013-02-11 13:34:00,
2013-02-11 08:39:00,38.8,33.8,29.66,SSW,201,8.7,13.2,82,0.04,,OVC032,0.12,VWS V14.01,2013-02-11 13:39:00,
2013-02-11 08:44:00,38.8,33.8,29.66,SW,218,12.3,13.2,82,0.04,,OVC032,0.12,VWS V14.01,2013-02-11 13:44:00,
2013-02-11 08:49:00,38.8,33.8,29.66,SW,219,8.3,13.2,82,0.04,,OVC032,0.12,VWS V14.01,2013-02-11 13:49:00,
2013-02-11 08:55:00,39.2,34.2,29.66,SW,229,15.0,15.4,82,0.04,,OVC032,0.12,VWS V14.01,2013-02-11 13:55:00,
2013-02-11 09:00:00,39.4,34.3,29.66,SW,215,11.0,16.3,82,0.04,,OVC032,0.00,VWS V14.01,2013-02-11 14:00:00,
2013-02-11 09:05:00,39.4,34.3,29.66,SSW,213,5.8,5.8,82,0.04,,OVC032,0.12,VWS V14.01,2013-02-11 14:05:00,
2013-02-11 09:10:00,39.4,34.3,29.66,SW,215,8.1,8.1,82,0.04,,OVC032,0.12,VWS V14.01,2013-02-11 14:10:00,
2013-02-11 09:15:00,39.6,34.5,29.66,SW,224,11.0,11.0,82,0.04,,OVC032,0.12,VWS V14.01,2013-02-11 14:15:00,
2013-02-11 09:20:00,39.6,34.5,29.66,SSW,203,14.1,14.1,82,0.04,,OVC032,0.12,VWS V14.01,2013-02-11 14:20:00,
2013-02-11 09:25:00,39.9,35.2,29.66,West,260,15.9,15.9,83,0.04,,OVC032,0.12,VWS V14.01,2013-02-11 14:25:00,
2013-02-11 09:30:00,40.3,35.5,29.66,South,186,12.3,15.0,83,0.04,,OVC032,0.12,VWS V14.01,2013-02-11 14:30:00,
2013-02-11 09:35:00,40.6,35.9,29.66,SW,219,12.3,17.0,83,0.04,,BKN200,0.12,VWS V14.01,2013-02-11 14:35:00,
2013-02-11 09:40:00,40.6,35.6,29.66,SSW,213,11.0,15.0,82,0.08,,BKN200,0.16,VWS V14.01,2013-02-11 14:40:00,
2013-02-11 09:45:00,40.6,35.6,29.66,SSW,194,12.8,17.0,82,0.04,,BKN200,0.16,VWS V14.01,2013-02-11 14:45:00,
2013-02-11 09:50:00,41.0,35.9,29.63,SW,223,10.1,13.2,82,0.04,,BKN200,0.16,VWS V14.01,2013-02-11 14:50:00,
2013-02-11 09:55:00,41.2,35.8,29.63,SW,228,11.4,13.6,81,0.04,,BKN200,0.16,VWS V14.01,2013-02-11 14:55:00,
2013-02-11 10:00:00,41.4,36.0,29.63,SSW,200,8.1,8.7,81,0.04,,BKN200,0.16,VWS V14.01,2013-02-11 15:00:00,
2013-02-11 10:05:00,41.5,36.2,29.63,South,177,7.6,13.2,81,0.04,,BKN200,0.16,VWS V14.01,2013-02-11 15:05:00,
2013-02-11 10:10:00,41.9,36.2,29.63,SW,219,11.0,13.2,80,0.04,,BKN200,0.16,VWS V14.01,2013-02-11 15:10:00,
2013-02-11 10:15:00,42.1,36.4,29.63,SW,227,12.3,14.5,80,0.04,,BKN200,0.16,VWS V14.01,2013-02-11 15:15:00,
2013-02-11 10:20:00,42.3,36.5,29.63,SSW,208,10.5,11.0,80,0.04,,BKN200,0.16,VWS V14.01,2013-02-11 15:20:00,
2013-02-11 10:25:00,42.6,36.6,29.63,SSW,207,13.6,13.6,79,0.04,,BKN200,0.16,VWS V14.01,2013-02-11 15:25:00,
2013-02-11 10:30:00,43.3,37.3,29.63,SW,222,7.6,17.4,79,0.04,,BKN200,0.16,VWS V14.01,2013-02-11 15:30:00,
2013-02-11 10:35:00,43.2,36.8,29.63,SW,232,12.8,15.4,78,0.04,,SCT200,0.16,VWS V14.01,2013-02-11 15:35:00,
2013-02-11 10:40:00,43.3,36.6,29.63,SW,215,8.7,17.4,77,0.04,,SCT200,0.16,VWS V14.01,2013-02-11 15:40:00,
2013-02-11 10:46:00,43.5,36.8,29.63,SSW,199,10.1,15.4,77,0.00,,SCT200,0.16,VWS V14.01,2013-02-11 15:46:00,
2013-02-11 10:51:00,43.3,36.6,29.63,SW,216,13.6,16.8,77,0.00,,SCT200,0.16,VWS V14.01,2013-02-11 15:51:00,
2013-02-11 10:56:00,43.5,36.5,29.63,South,173,9.6,11.0,76,0.00,,SCT200,0.16,VWS V14.01,2013-02-11 15:56:00,
2013-02-11 11:01:00,43.7,36.6,29.63,SW,229,10.5,15.0,76,0.00,,SCT200,0.16,VWS V14.01,2013-02-11 16:01:00,
2013-02-11 11:06:00,43.7,36.6,29.63,SSW,195,8.7,18.3,76,0.00,,SCT200,0.16,VWS V14.01,2013-02-11 16:06:00,
2013-02-11 11:11:00,43.7,36.3,29.63,SW,225,13.2,15.4,75,0.00,,SCT200,0.16,VWS V14.01,2013-02-11 16:11:00,
2013-02-11 11:16:00,44.1,36.7,29.63,SW,231,8.7,19.7,75,0.00,,SCT200,0.16,VWS V14.01,2013-02-11 16:16:00,
2013-02-11 11:21:00,43.9,36.8,29.60,SSW,201,8.3,16.8,76,0.00,,SCT200,0.16,VWS V14.01,2013-02-11 16:21:00,
2013-02-11 11:26:00,43.7,36.6,29.60,SSW,213,9.2,11.0,76,0.00,,SCT200,0.16,VWS V14.01,2013-02-11 16:26:00,
2013-02-11 11:31:00,43.9,36.8,29.60,SW,224,10.1,13.2,76,0.00,,SCT200,0.16,VWS V14.01,2013-02-11 16:31:00,
2013-02-11 11:36:00,44.1,36.7,29.60,WSW,257,11.0,15.0,75,0.00,,SCT120,0.16,VWS V14.01,2013-02-11 16:36:00,
2013-02-11 11:41:00,44.1,36.7,29.60,SSE,151,8.7,15.4,75,0.00,,SCT120,0.16,VWS V14.01,2013-02-11 16:41:00,
2013-02-11 11:46:00,44.1,36.7,29.60,South,191,11.0,11.0,75,0.00,,SCT120,0.16,VWS V14.01,2013-02-11 16:46:00,
2013-02-11 11:51:00,44.4,37.0,29.57,SW,231,11.0,11.0,75,0.04,,SCT120,0.20,VWS V14.01,2013-02-11 16:51:00,
2013-02-11 11:56:00,44.8,37.0,29.57,SSW,192,8.1,13.2,74,0.04,,SCT120,0.20,VWS V14.01,2013-02-11 16:56:00,
2013-02-11 12:01:00,45.1,37.0,29.57,WSW,246,12.8,15.0,73,0.04,,SCT120,0.20,VWS V14.01,2013-02-11 17:01:00,
2013-02-11 12:06:00,45.5,37.4,29.57,SW,218,10.5,17.4,73,0.04,,SCT120,0.20,VWS V14.01,2013-02-11 17:06:00,
2013-02-11 12:11:00,45.5,37.0,29.57,SW,226,18.8,22.8,72,0.04,,SCT120,0.20,VWS V14.01,2013-02-11 17:11:00,
2013-02-11 12:16:00,45.5,37.0,29.57,WSW,242,15.4,16.8,72,0.04,,SCT120,0.20,VWS V14.01,2013-02-11 17:16:00,
2013-02-11 12:21:00,45.5,37.0,29.57,SW,227,23.3,23.3,72,0.04,,SCT120,0.20,VWS V14.01,2013-02-11 17:21:00,
2013-02-11 12:26:00,45.3,37.2,29.57,South,182,10.5,13.2,73,0.04,,SCT120,0.20,VWS V14.01,2013-02-11 17:26:00,
2013-02-11 12:32:00,45.5,37.0,29.57,SW,222,13.2,13.2,72,0.04,,SCT120,0.20,VWS V14.01,2013-02-11 17:32:00,
2013-02-11 12:37:00,45.9,37.4,29.54,WSW,248,8.3,13.6,72,0.04,,SCT120,0.20,VWS V14.01,2013-02-11 17:37:00,
2013-02-11 12:42:00,46.0,37.5,29.54,SW,235,12.8,16.3,72,0.04,,SCT120,0.20,VWS V14.01,2013-02-11 17:42:00,
2013-02-11 12:47:00,46.0,37.5,29.54,SSW,196,11.0,15.0,72,0.04,,SCT120,0.20,VWS V14.01,2013-02-11 17:47:00,
2013-02-11 12:52:00,46.2,37.7,29.54,South,183,10.5,17.0,72,0.00,,SCT120,0.20,VWS V14.01,2013-02-11 17:52:00,
2013-02-11 12:57:00,46.2,37.3,29.54,SSW,210,12.8,15.4,71,0.00,,SCT120,0.20,VWS V14.01,2013-02-11 17:57:00,
2013-02-11 13:02:00,45.9,36.6,29.54,SSW,203,13.2,15.0,70,0.00,,-RA,0.20,VWS V14.01,2013-02-11 18:02:00,
2013-02-11 13:07:00,45.9,36.6,29.51,SSW,210,11.0,15.0,70,0.00,,-RA,0.20,VWS V14.01,2013-02-11 18:07:00,
2013-02-11 13:12:00,43.9,34.0,29.51,SW,226,15.4,28.4,68,0.00,,-RA,0.20,VWS V14.01,2013-02-11 18:12:00,
2013-02-11 13:17:00,41.5,33.5,29.51,WSW,258,11.0,13.2,73,0.00,,-RA,0.20,VWS V14.01,2013-02-11 18:17:00,
2013-02-11 13:22:00,40.6,33.3,29.57,SW,234,15.9,22.4,75,0.00,,-RA,0.20,VWS V14.01,2013-02-11 18:22:00,
2013-02-11 13:27:00,40.3,33.0,29.57,West,266,10.5,23.7,75,0.00,,-RA,0.20,VWS V14.01,2013-02-11 18:27:00,
2013-02-11 13:32:00,39.9,33.0,29.57,WSW,247,8.3,19.2,76,0.00,,-RA,0.20,VWS V14.01,2013-02-11 18:32:00,
2013-02-11 13:37:00,39.6,32.3,29.57,WSW,251,10.5,19.2,75,0.00,,-RA,0.20,VWS V14.01,2013-02-11 18:37:00,
2013-02-11 13:42:00,39.2,31.6,29.57,SW,221,6.3,19.7,74,0.00,,-RA,0.20,VWS V14.01,2013-02-11 18:42:00,
2013-02-11 13:47:00,39.0,31.5,29.57,SW,236,12.3,17.0,74,0.00,,-RA,0.20,VWS V14.01,2013-02-11 18:47:00,
2013-02-11 13:52:00,39.0,31.5,29.57,SSW,200,15.0,21.5,74,0.00,,-RA,0.20,VWS V14.01,2013-02-11 18:52:00,
2013-02-11 13:57:00,38.8,30.9,29.57,SW,231,9.2,23.3,73,0.00,,-RA,0.20,VWS V14.01,2013-02-11 18:57:00,
2013-02-11 14:02:00,38.7,30.4,29.57,WSW,251,13.2,21.5,72,0.00,,-RA,0.20,VWS V14.01,2013-02-11 19:02:00,
2013-02-11 14:07:00,38.7,30.1,29.60,SW,226,8.7,23.3,71,0.00,,-RA,0.20,VWS V14.01,2013-02-11 19:07:00,
2013-02-11 14:12:00,38.5,29.9,29.60,SSW,206,12.8,17.4,71,0.00,,-RA,0.20,VWS V14.01,2013-02-11 19:12:00,
2013-02-11 14:17:00,38.1,29.6,29.60,NW,304,6.3,21.9,71,0.00,,-RA,0.20,VWS V14.01,2013-02-11 19:17:00,
2013-02-11 14:23:00,38.1,29.9,29.57,SSE,158,11.0,19.2,72,0.00,,-RA,0.20,VWS V14.01,2013-02-11 19:23:00,
2013-02-11 14:28:00,37.9,29.0,29.57,West,259,13.2,26.2,70,0.00,,-RA,0.20,VWS V14.01,2013-02-11 19:28:00,
2013-02-11 14:33:00,37.9,28.7,29.57,SW,233,13.2,21.9,69,0.00,,-RA,0.20,VWS V14.01,2013-02-11 19:33:00,
2013-02-11 14:38:00,37.6,28.7,29.60,WNW,283,34.9,34.9,70,0.00,,-RA,0.20,VWS V14.01,2013-02-11 19:38:00,
2013-02-11 14:43:00,37.4,28.2,29.60,SW,221,8.3,25.1,69,0.00,,-RA,0.20,VWS V14.01,2013-02-11 19:43:00,
2013-02-11 14:48:00,37.2,28.4,29.60,West,267,22.8,22.8,70,0.00,,-RA,0.20,VWS V14.01,2013-02-11 19:48:00,
2013-02-11 14:53:00,37.0,27.1,29.60,SW,222,16.8,25.5,67,0.00,,-RA,0.20,VWS V14.01,2013-02-11 19:53:00,
2013-02-11 14:58:00,36.9,27.3,29.60,West,271,17.4,28.9,68,0.00,,-RA,0.20,VWS V14.01,2013-02-11 19:58:00,
2013-02-11 15:03:00,36.9,27.3,29.60,West,277,11.0,24.6,68,0.00,,OVC065,0.20,VWS V14.01,2013-02-11 20:03:00,
2013-02-11 15:08:00,36.7,26.4,29.60,SSW,199,28.4,30.2,66,0.00,,OVC065,0.20,VWS V14.01,2013-02-11 20:08:00,
2013-02-11 15:13:00,36.5,26.2,29.60,WNW,302,11.0,31.1,66,0.00,,OVC065,0.20,VWS V14.01,2013-02-11 20:13:00,
2013-02-11 15:18:00,36.1,26.6,29.60,NW,326,10.5,21.9,68,0.00,,OVC065,0.20,VWS V14.01,2013-02-11 20:18:00,
2013-02-11 15:23:00,36.1,26.3,29.60,WSW,239,20.1,25.7,67,0.00,,OVC065,0.20,VWS V14.01,2013-02-11 20:23:00,
2013-02-11 15:28:00,36.0,26.4,29.60,SW,224,5.8,17.9,68,0.00,,OVC065,0.20,VWS V14.01,2013-02-11 20:28:00,
2013-02-11 15:33:00,35.8,26.6,29.60,SW,216,10.5,22.4,69,0.00,,OVC060,0.20,VWS V14.01,2013-02-11 20:33:00,
2013-02-11 15:38:00,35.8,25.9,29.60,WSW,256,13.2,27.5,67,0.00,,OVC060,0.20,VWS V14.01,2013-02-11 20:38:00,
2013-02-11 15:43:00,35.6,25.7,29.60,SSW,197,13.2,25.5,67,0.00,,OVC060,0.20,VWS V14.01,2013-02-11 20:43:00,
2013-02-11 15:48:00,35.4,25.6,29.60,WSW,256,19.7,28.0,67,0.00,,OVC060,0.20,VWS V14.01,2013-02-11 20:48:00,
2013-02-11 15:53:00,35.2,25.0,29.60,NW,320,22.8,28.4,66,0.00,,OVC060,0.20,VWS V14.01,2013-02-11 20:53:00,
2013-02-11 15:58:00,35.1,25.6,29.60,West,265,11.0,17.9,68,0.00,,OVC060,0.20,VWS V14.01,2013-02-11 20:58:00,
2013-02-11 16:03:00,34.9,25.0,29.60,West,262,19.7,30.6,67,0.00,,OVC060,0.20,VWS V14.01,2013-02-11 21:03:00,
2013-02-11 16:08:00,34.9,25.0,29.60,NW,313,11.0,29.3,67,0.00,,OVC060,0.20,VWS V14.01,2013-02-11 21:08:00,
2013-02-11 16:13:00,34.9,24.7,29.60,West,262,22.8,26.6,66,0.00,,OVC060,0.20,VWS V14.01,2013-02-11 21:13:00,
2013-02-11 16:19:00,34.7,24.9,29.60,WSW,250,16.3,20.6,67,0.00,,OVC060,0.20,VWS V14.01,2013-02-11 21:19:00,
2013-02-11 16:24:00,34.7,24.9,29.60,WSW,255,15.0,22.4,67,0.00,,OVC060,0.20,VWS V14.01,2013-02-11 21:24:00,
2013-02-11 16:29:00,34.7,24.9,29.60,West,271,28.0,28.9,67,0.00,,OVC060,0.20,VWS V14.01,2013-02-11 21:29:00,
2013-02-11 16:34:00,34.9,24.0,29.60,SW,230,15.0,17.4,64,0.00,,OVC070,0.20,VWS V14.01,2013-02-11 21:34:00,
2013-02-11 16:39:00,34.9,22.8,29.60,WSW,239,13.2,26.6,61,0.00,,OVC070,0.20,VWS V14.01,2013-02-11 21:39:00,
2013-02-11 16:44:00,34.9,22.8,29.60,WSW,250,15.4,25.7,61,0.00,,OVC070,0.20,VWS V14.01,2013-02-11 21:44:00,
2013-02-11 16:49:00,34.9,22.8,29.60,WSW,242,21.9,28.9,61,0.00,,OVC070,0.20,VWS V14.01,2013-02-11 21:49:00,
2013-02-11 16:54:00,34.7,22.6,29.63,SSW,195,12.8,28.9,61,0.00,,OVC070,0.20,VWS V14.01,2013-02-11 21:54:00,
2013-02-11 16:59:00,34.5,22.5,29.63,West,262,13.2,23.7,61,0.00,,OVC070,0.20,VWS V14.01,2013-02-11 21:59:00,
2013-02-11 17:04:00,34.7,22.6,29.63,SW,222,23.7,29.8,61,0.00,,OVC070,0.20,VWS V14.01,2013-02-11 22:04:00,
2013-02-11 17:09:00,34.5,22.1,29.63,West,276,15.4,25.5,60,0.00,,OVC070,0.20,VWS V14.01,2013-02-11 22:09:00,
2013-02-11 17:14:00,34.5,22.5,29.63,WSW,240,16.3,29.8,61,0.00,,OVC070,0.20,VWS V14.01,2013-02-11 22:14:00,
2013-02-11 17:19:00,34.5,22.1,29.63,SW,235,16.8,29.3,60,0.00,,OVC070,0.20,VWS V14.01,2013-02-11 22:19:00,
2013-02-11 17:24:00,34.3,22.7,29.63,WSW,238,10.5,24.2,62,0.00,,OVC070,0.20,VWS V14.01,2013-02-11 22:24:00,
2013-02-11 17:29:00,34.3,22.3,29.63,WSW,256,33.3,33.3,61,0.00,,OVC070,0.20,VWS V14.01,2013-02-11 22:29:00,
2013-02-11 17:34:00,34.2,22.5,29.63,West,262,23.3,28.0,62,0.00,,OVC070,0.20,VWS V14.01,2013-02-11 22:34:00,
2013-02-11 17:39:00,34.2,22.9,29.63,WSW,250,10.5,25.1,63,0.00,,OVC070,0.20,VWS V14.01,2013-02-11 22:39:00,
2013-02-11 17:44:00,34.2,22.9,29.63,WSW,247,12.8,29.8,63,0.00,,OVC070,0.20,VWS V14.01,2013-02-11 22:44:00,
2013-02-11 17:49:00,34.0,23.1,29.63,North,357,15.4,28.0,64,0.00,,OVC070,0.20,VWS V14.01,2013-02-11 22:49:00,
2013-02-11 17:54:00,34.0,23.1,29.63,SW,222,28.4,28.4,64,0.00,,OVC070,0.20,VWS V14.01,2013-02-11 22:54:00,
2013-02-11 17:59:00,34.0,23.1,29.63,WSW,244,25.5,25.7,64,0.00,,OVC070,0.20,VWS V14.01,2013-02-11 22:59:00,
2013-02-11 18:04:00,34.0,23.1,29.63,WSW,242,18.8,25.7,64,0.00,,OVC055,0.20,VWS V14.01,2013-02-11 23:04:00,
2013-02-11 18:09:00,34.0,22.0,29.63,SSW,209,11.4,33.3,61,0.00,,OVC055,0.20,VWS V14.01,2013-02-11 23:09:00,
2013-02-11 18:14:00,33.8,22.2,29.63,SW,220,10.5,22.8,62,0.00,,OVC055,0.20,VWS V14.01,2013-02-11 23:14:00,
2013-02-11 18:19:00,33.8,22.2,29.63,SSW,200,15.0,26.6,62,0.00,,OVC055,0.20,VWS V14.01,2013-02-11 23:19:00,
2013-02-11 18:24:00,33.6,21.6,29.63,NW,314,15.4,30.6,61,0.00,,OVC055,0.20,VWS V14.01,2013-02-11 23:24:00,
2013-02-11 18:30:00,33.6,22.0,29.63,West,262,14.1,28.4,62,0.00,,OVC055,0.20,VWS V14.01,2013-02-11 23:30:00,
2013-02-11 18:35:00,33.6,22.4,29.66,West,261,16.8,32.9,63,0.00,,OVC055,0.20,VWS V14.01,2013-02-11 23:35:00,
2013-02-11 18:40:00,33.4,22.6,29.66,SSW,195,12.8,26.6,64,0.00,,OVC055,0.20,VWS V14.01,2013-02-11 23:40:00,
2013-02-11 18:45:00,33.3,22.8,29.66,SW,221,18.3,21.5,65,0.00,,OVC055,0.20,VWS V14.01,2013-02-11 23:45:00,
2013-02-11 18:50:00,33.1,22.2,29.66,West,268,13.6,26.2,64,0.00,,OVC055,0.20,VWS V14.01,2013-02-11 23:50:00,
2013-02-11 18:55:00,33.1,22.2,29.66,WNW,282,12.3,19.2,64,0.00,,OVC055,0.20,VWS V14.01,2013-02-11 23:55:00,
2013-02-11 19:00:00,33.1,21.9,29.66,South,170,34.9,34.9,63,0.00,,OVC055,0.20,VWS V14.01,2013-02-12 00:00:00,
2013-02-11 19:05:00,33.1,21.9,29.66,SSW,208,25.1,25.1,63,0.00,,,0.20,VWS V14.01,2013-02-12 00:05:00,
2013-02-11 19:10:00,33.3,22.0,29.66,West,275,22.4,22.4,63,0.00,,,0.20,VWS V14.01,2013-02-12 00:10:00,
2013-02-11 19:15:00,33.3,21.7,29.66,SW,232,8.7,25.7,62,0.00,,,0.20,VWS V14.01,2013-02-12 00:15:00,
2013-02-11 19:20:00,33.4,21.8,29.66,South,178,19.7,19.7,62,0.00,,,0.20,VWS V14.01,2013-02-12 00:20:00,
2013-02-11 19:25:00,33.3,22.0,29.66,West,260,22.4,22.4,63,0.00,,,0.20,VWS V14.01,2013-02-12 00:25:00,
2013-02-11 19:30:00,33.4,22.2,29.66,SSW,205,14.5,17.4,63,0.00,,,0.20,VWS V14.01,2013-02-12 00:30:00,
2013-02-11 19:35:00,33.4,21.8,29.66,West,259,16.8,26.2,62,0.00,,,0.20,VWS V14.01,2013-02-12 00:35:00,
2013-02-11 19:40:00,33.4,21.8,29.66,WSW,252,6.3,26.2,62,0.00,,,0.20,VWS V14.01,2013-02-12 00:40:00,
2013-02-11 19:45:00,33.6,21.6,29.66,WSW,243,13.2,25.7,61,0.00,,,0.20,VWS V14.01,2013-02-12 00:45:00,
2013-02-11 19:50:00,33.4,21.8,29.66,SSW,208,11.4,11.4,62,0.00,,,0.20,VWS V14.01,2013-02-12 00:50:00,
2013-02-11 19:55:00,33.6,21.6,29.66,SW,217,8.7,26.2,61,0.00,,,0.20,VWS V14.01,2013-02-12 00:55:00,
2013-02-11 20:00:00,33.8,21.4,29.66,West,259,14.5,26.6,60,0.00,,,0.20,VWS V14.01,2013-02-12 01:00:00,
2013-02-11 20:05:00,33.8,21.4,29.66,WSW,255,34.2,34.2,60,0.00,,,0.20,VWS V14.01,2013-02-12 01:05:00,
2013-02-11 20:11:00,33.8,21.4,29.66,SW,218,13.2,20.1,60,0.00,,,0.20,VWS V14.01,2013-02-12 01:11:00,
2013-02-11 20:16:00,33.6,22.0,29.66,SW,228,27.5,27.5,62,0.00,,,0.20,VWS V14.01,2013-02-12 01:16:00,
2013-02-11 20:21:00,33.8,21.8,29.66,West,273,15.4,28.0,61,0.00,,,0.20,VWS V14.01,2013-02-12 01:21:00,
2013-02-11 20:26:00,33.8,21.8,29.66,SW,231,16.8,28.9,61,0.00,,,0.20,VWS V14.01,2013-02-12 01:26:00,
2013-02-11 20:31:00,33.6,22.0,29.66,West,273,10.5,14.5,62,0.00,,,0.20,VWS V14.01,2013-02-12 01:31:00,
2013-02-11 20:36:00,33.6,21.6,29.66,WSW,247,13.2,32.9,61,0.00,,,0.20,VWS V14.01,2013-02-12 01:36:00,
2013-02-11 20:41:00,33.6,22.0,29.66,NW,314,19.7,32.4,62,0.00,,,0.20,VWS V14.01,2013-02-12 01:41:00,
2013-02-11 20:46:00,33.6,22.4,29.66,South,169,22.4,22.4,63,0.00,,,0.20,VWS V14.01,2013-02-12 01:46:00,
2013-02-11 20:51:00,33.6,22.4,29.66,WSW,238,18.8,33.3,63,0.00,,,0.20,VWS V14.01,2013-02-12 01:51:00,
2013-02-11 20:56:00,33.6,22.8,29.66,West,272,24.2,26.6,64,0.00,,,0.20,VWS V14.01,2013-02-12 01:56:00,
2013-02-11 21:01:00,33.6,22.8,29.66,West,264,18.3,29.3,64,0.00,,,0.20,VWS V14.01,2013-02-12 02:01:00,
2013-02-11 21:06:00,33.4,23.0,29.66,WSW,250,16.3,22.8,65,0.00,,,0.20,VWS V14.01,2013-02-12 02:06:00,
2013-02-11 21:11:00,33.3,23.1,29.66,WSW,237,29.8,29.8,66,0.00,,,0.20,VWS V14.01,2013-02-12 02:11:00,
2013-02-11 21:16:00,33.4,23.0,29.66,WSW,247,22.4,22.8,65,0.00,,,0.20,VWS V14.01,2013-02-12 02:16:00,
2013-02-11 21:21:00,33.4,23.0,29.66,WSW,247,17.4,28.4,65,0.00,,,0.20,VWS V14.01,2013-02-12 02:21:00,
2013-02-11 21:26:00,33.4,23.3,29.66,WSW,252,20.6,31.5,66,0.00,,,0.20,VWS V14.01,2013-02-12 02:26:00,
2013-02-11 21:31:00,33.3,23.1,29.66,WSW,257,21.0,22.4,66,0.00,,,0.20,VWS V14.01,2013-02-12 02:31:00,
2013-02-11 21:36:00,33.3,23.1,29.66,SW,229,29.8,29.8,66,0.00,,OVC024,0.20,VWS V14.01,2013-02-12 02:36:00,
2013-02-11 21:41:00,33.3,23.5,29.66,NNE,19,15.4,15.9,67,0.00,,OVC024,0.20,VWS V14.01,2013-02-12 02:41:00,
2013-02-11 21:46:00,33.3,23.9,29.66,South,180,34.2,34.2,68,0.00,,OVC024,0.20,VWS V14.01,2013-02-12 02:46:00,
2013-02-11 21:51:00,33.1,23.7,29.66,SW,227,15.4,18.3,68,0.00,,OVC024,0.20,VWS V14.01,2013-02-12 02:51:00,
2013-02-11 21:56:00,33.1,23.7,29.66,SSW,206,10.5,26.6,68,0.00,,OVC024,0.20,VWS V14.01,2013-02-12 02:56:00,
2013-02-11 22:01:00,33.3,23.9,29.66,WSW,249,9.2,26.2,68,0.00,,OVC024,0.20,VWS V14.01,2013-02-12 03:01:00,
2013-02-11 22:06:00,33.3,23.9,29.66,SW,218,24.2,30.2,68,0.00,,OVC024,0.20,VWS V14.01,2013-02-12 03:06:00,
2013-02-11 22:11:00,33.3,23.9,29.66,WSW,239,15.4,27.1,68,0.00,,OVC024,0.20,VWS V14.01,2013-02-12 03:11:00,
2013-02-11 22:16:00,33.1,23.7,29.66,SSW,196,13.2,23.7,68,0.00,,OVC024,0.20,VWS V14.01,2013-02-12 03:16:00,
2013-02-11 22:21:00,33.1,23.7,29.66,WSW,244,10.5,21.0,68,0.00,,OVC024,0.20,VWS V14.01,2013-02-12 03:21:00,
2013-02-11 22:27:00,33.1,24.0,29.66,West,272,17.4,17.9,69,0.00,,OVC024,0.20,VWS V14.01,2013-02-12 03:27:00,
2013-02-11 22:32:00,33.1,24.0,29.66,SW,235,16.3,26.6,69,0.00,,,0.20,VWS V14.01,2013-02-12 03:32:00,
2013-02-11 22:37:00,33.1,23.7,29.66,WSW,249,17.4,34.4,68,0.00,,,0.20,VWS V14.01,2013-02-12 03:37:00,
2013-02-11 22:42:00,33.1,23.7,29.66,WSW,247,21.0,21.0,68,0.00,,,0.20,VWS V14.01,2013-02-12 03:42:00,
2013-02-11 22:47:00,32.7,24.4,29.66,WSW,238,10.1,15.9,71,0.00,,,0.20,VWS V14.01,2013-02-12 03:47:00,
2013-02-11 22:52:00,32.5,24.9,29.66,SSW,209,23.3,23.3,73,0.00,,,0.20,VWS V14.01,2013-02-12 03:52:00,
2013-02-11 22:57:00,32.5,25.2,29.66,West,281,8.3,25.1,74,0.00,,,0.20,VWS V14.01,2013-02-12 03:57:00,
2013-02-11 23:02:00,32.2,25.8,29.66,WSW,247,11.0,25.1,77,0.00,,,0.20,VWS V14.01,2013-02-12 04:02:00,
2013-02-11 23:07:00,32.0,26.2,29.66,WSW,250,9.6,17.4,79,0.00,,,0.20,VWS V14.01,2013-02-12 04:07:00,
2013-02-11 23:12:00,32.0,26.2,29.66,West,262,17.0,22.4,79,0.00,,,0.20,VWS V14.01,2013-02-12 04:12:00,
2013-02-11 23:17:00,32.0,26.5,29.66,SSW,202,25.5,25.5,80,0.00,,,0.20,VWS V14.01,2013-02-12 04:17:00,
2013-02-11 23:22:00,31.6,26.8,29.66,West,268,14.5,16.8,82,0.00,,,0.20,VWS V14.01,2013-02-12 04:22:00,
2013-02-11 23:27:00,31.5,27.2,29.66,NW,309,18.8,28.4,84,0.00,,,0.20,VWS V14.01,2013-02-12 04:27:00,
2013-02-11 23:32:00,31.3,27.6,29.66,WSW,256,11.0,15.9,86,0.00,,,0.20,VWS V14.01,2013-02-12 04:32:00,
2013-02-11 23:37:00,31.3,27.9,29.66,WSW,243,8.1,15.9,87,0.00,,,0.20,VWS V14.01,2013-02-12 04:37:00,
2013-02-11 23:42:00,31.3,28.1,29.66,SW,234,17.4,26.6,88,0.00,,,0.20,VWS V14.01,2013-02-12 04:42:00,
2013-02-11 23:47:00,31.3,28.4,29.66,SW,226,19.2,19.2,89,0.00,,,0.20,VWS V14.01,2013-02-12 04:47:00,
2013-02-11 23:52:00,31.3,28.4,29.66,SSW,202,8.3,23.7,89,0.00,,,0.20,VWS V14.01,2013-02-12 04:52:00,
2013-02-11 23:57:00,31.1,28.5,29.66,West,263,15.9,17.9,90,0.00,,,0.20,VWS V14.01,2013-02-12 04:57:00,